Regional Weather Roundup
Issued by NWS

Home | Current Version | Previous Version | Graphics & Text | Print | Product List | Glossary On
Versions: 1 2 3 4 5 6 7 8 9 10 11 12 13 14 15 16 17 18 19 20 21 22 23 24 25 26 27 28 29 30 31 32 33 34 35 36 37 38 39 40 41 42 43 44 45 46 47 48 49 50
000
ASUS43 KDMX 191701
RWRIA

WEATHER ROUNDUP FOR IOWA
NATIONAL WEATHER SERVICE DES MOINES IA
1200 PM CDT THU APR 19 2018

NOTE: "FAIR" INDICATES FEW OR NO CLOUDS BELOW 12,000 FEET WITH NO
SIGNIFICANT WEATHER AND/OR OBSTRUCTIONS TO VISIBILITY.

* - THESE STATIONS ARE NOT NWS STATIONS...THUS NOT UNDER NWS
QUALITY CONTROL.  THEY ALSO DO NOT REPORT WEATHER SUCH
AS PRECIPITATION OR FOG.

IAZ001>003-012>014-020>022-031>034-043>046-191800-
   NORTHWEST IOWA

CITY           SKY/WX    TMP DP  RH WIND       PRES   REMARKS
CARROLL *      SUNNY     43  32  65 NE8       30.49R
CHEROKEE *     SUNNY     38  25  59 E6        30.51R WCI  34
DENISON *      SUNNY     45  32  61 VRB6G12   30.49S
LE MARS *      SUNNY     39  25  56 E5        30.51R
ORANGE CITY *  SUNNY     37  25  60 CALM      30.50R
SHELDON *      SUNNY     36  25  64 E6        30.48S WCI  31
SIOUX CITY     SUNNY     45  28  51 E7        30.50R
SPENCER        SUNNY     37  23  56 E7        30.50R WCI  32
STORM LAKE *   SUNNY     34  23  64 E10       30.49R WCI  26
$$

IAZ055>058-069>071-079>083-090>094-191800-
   SOUTHWEST IOWA

CITY           SKY/WX    TMP DP  RH WIND       PRES   REMARKS
ATLANTIC *     SUNNY     46  30  53 E9        30.47S
AUDUBON *      SUNNY     46  32  57 NE8       30.48S
CLARINDA *     SUNNY     50  30  46 N9        30.49S
COUNCIL BLFS * SUNNY     46  30  53 VRB6      30.48R
CRESTON *      SUNNY     46  30  53 N12       30.48R
HARLAN  *      SUNNY     46  32  57 NE9       30.51R
LAMONI         SUNNY     48  29  47 N8        30.46R
RED OAK *      SUNNY     48  32  53 NE12      30.48S
SHENANDOAH *   SUNNY     50  28  43 NE10      30.48S
$$

IAZ047>049-059>061-072>074-084-191800-
   CENTRAL IOWA

CITY           SKY/WX    TMP DP  RH WIND       PRES   REMARKS
AMES             N/A     44  31  60 MISG      30.50R
ANKENY *       SUNNY     45  28  53 N10       30.50R
BOONE *        SUNNY     41  28  60 N8        30.49R
CHARITON *     SUNNY     46  30  53 VRB7G14   30.46R
DES MOINES     MOSUNNY   48  28  46 N5        30.48R
GRINNELL*      SUNNY     43  32  64 NW8       30.48R
KNOXVILLE *    SUNNY     45  27  49 N7G14     30.46R
MARSHALLTOWN   SUNNY     41  32  70 N8        30.48R
NEWTON *       SUNNY     43  28  56 N10       30.48R
PELLA *        SUNNY     46  29  52 N8        30.49R
$$

IAZ004>006-015-016-023>025-035-036-191800-
   NORTH CENTRAL IOWA

CITY           SKY/WX    TMP DP  RH WIND       PRES   REMARKS
ALGONA *       SUNNY     34  21  60 N5        30.51R WCI  30
CLARION *      SUNNY     32  21  64 NW6       30.50R WCI  26
ESTHERVILLE    SUNNY     34  24  67 NE6       30.50R WCI  29
FORT DODGE *   SUNNY     36  21  54 NE8       30.51R WCI  30
MASON CITY     SUNNY     38  26  62 N5        30.50R WCI  34
FOREST CITY *  FAIR      37  23  56 N6        30.49R WCI  33
IOWA FALLS *   FAIR      39  26  59 N5        30.50R
$$

IAZ007>011-017>019-026>030-037>042-050>054-066-191800-
   NORTHEAST IOWA

CITY           SKY/WX    TMP DP  RH WIND       PRES   REMARKS
CEDAR RAPIDS   FAIR      47  26  44 VRB3      30.44R
CHARLES CITY * FAIR      36  23  60 N8        30.48R WCI  29
CLINTON *      FAIR      45  31  58 N9        30.43R
DECORAH *      FAIR      37  25  60 NW8       30.45R WCI  31
DUBUQUE        FAIR      41  26  55 NW7       30.43R
MONTICELLO *   FAIR      43  34  70 N8        30.44R
OELWEIN *      FAIR      36  30  80 NW8       30.47R WCI  29
WATERLOO       FAIR      39  25  57 N7        30.48R WCI  34
$$

IAZ064-065-067-068-078-191800-
   EAST CENTRAL IOWA

CITY           SKY/WX    TMP DP  RH WIND       PRES   REMARKS
DAVENPORT      FAIR      45  31  58 NW9       30.44R
IOWA CITY      FAIR      47  24  40 NW8       30.46R
MUSCATINE *    FAIR      48  25  40 NE8       30.45R
QUAD CITIES    FAIR      48  29  47 NW8       30.42R
$$

IAZ062-063-075>077-085>089-095>099-191800-
   SOUTHEAST IOWA

CITY           SKY/WX    TMP DP  RH WIND       PRES   REMARKS
BURLINGTON     SUNNY     50  29  44 NE5       30.42R
FAIRFIELD *    SUNNY     46  27  46 N9        30.45R
FORT MADISON * SUNNY     48  34  57 N12       30.43R
KEOKUK *       SUNNY     48  32  53 N12       30.43R
OSKALOOSA *    FAIR      46  29  51 N7        30.47R
CENTERVILLE *    N/A     48  30  49 N6        30.46R
OTTUMWA        SUNNY     48  30  49 N9        30.46R
WASHINGTON *   SUNNY     48  32  53 N10       30.46R
$$

ABBREVIATIONS USED IN REMARKS
   TC - TEMPERATURES IN CELSIUS
  WCI - WIND CHILL INDEX
   HX - HEAT INDEX
  VSB - VISIBILITY
$$





USA.gov is the U.S. government's official web portal to all federal, state and local government web resources and services.